Regional Weather Roundup
Issued by NWS

Home | Current Version | Previous Version | Graphics & Text | Print | Product List | Glossary On
Versions: 1 2 3 4 5 6 7 8 9 10 11 12 13 14 15 16 17 18 19 20 21 22 23 24 25 26 27 28 29 30 31 32 33 34 35 36 37 38 39 40 41 42 43 44 45 46 47 48 49 50
000
ASUS43 KLMK 020202
RWRKY
KENTUCKY REGIONAL WEATHER ROUNDUP
NATIONAL WEATHER SERVICE LOUISVILLE KY
1000 PM EDT MON SEP 01 2014

NOTE "FAIR" INDICATES FEW OR NO CLOUDS BELOW 12,000 FEET
WITH NO SIGNIFICANT WEATHER AND/OR OBSTRUCTIONS TO VISIBILITY.

KYZ001>023-026-027-061>063-070>075-020300-
WESTERN AND SOUTH CENTRAL KENTUCKY

CITY           SKY/WX    TMP DP  RH WIND       PRES   REMARKS
PADUCAH        CLEAR     80  73  79 S6        29.94R
HENDERSON      PTCLDY    75  70  83 S3        29.96R
OWENSBORO      NOT AVBL
HOPKINSVILLE   CLEAR     80  73  80 S6        30.00R
BOWLING GREEN  PTCLDY    80  69  69 S5        30.01R
GLASGOW        PTCLDY    75  69  82 CALM      30.02R
$$

KYZ024-025-028>034-038-045-046-053-020300-
NORTH CENTRAL KENTUCKY

CITY           SKY/WX    TMP DP  RH WIND       PRES   REMARKS
LOUISVILLE/SDF CLEAR     81  72  74 SW9       29.98R
LOUISVILLE/LOU CLEAR     80  72  76 S6        29.98R
FORT KNOX      PTCLDY    75  73  91 S5        29.99R
$$

KYZ035>037-039>044-047>052-055>060-089>105-020300-
NORTHEAST KENTUCKY

CITY           SKY/WX    TMP DP  RH WIND       PRES   REMARKS
LEXINGTON      MOCLDY    75  71  87 S6        30.03R
COVINGTON      MOCLDY    78  69  73 SW9       29.95R
FRANKFORT      PTCLDY    77  72  84 SW7       30.00R
$$

KYZ054-064>069-076>088-106>120-020300-
SOUTHEAST KENTUCKY

CITY           SKY/WX    TMP DP  RH WIND       PRES   REMARKS
JACKSON        CLOUDY    78  67  68 CALM      30.07R
LONDON         MOCLDY    78  68  71 CALM      30.08R
SOMERSET       MOCLDY    73  66  78 CALM      30.07R
MIDDLESBORO    PTCLDY    74  72  91 CALM      30.09R
MONTICELLO     PTCLDY    72  70  93 CALM      30.07R
$$



USA.gov is the U.S. government's official web portal to all federal, state and local government web resources and services.